Siemreap, Cambodia

1:09 PM +07 on April 30, 2017 (GMT +0700)
Siem Reap

Weather History for VDSR - September, 2012

Change the Weather History Date:

Sunday, September 2, 2012

  Actual Average Record
Temperature  
Mean Temperature 82 °F -  
Max Temperature 86 °F - - ()
Min Temperature 77 °F - - ()
Cooling Degree Days 16    
Growing Degree Days 32 (Base 50)    
Moisture  
Dew Point 75 °F    
Average Humidity 80    
Maximum Humidity 89    
Minimum Humidity 62    
Precipitation  
Precipitation 0.00 in - - ()
Sea Level Pressure  
Sea Level Pressure 29.68 in    
Wind  
Wind Speed 4 mph ()    
Max Wind Speed 10 mph    
Max Gust Speed -    
Visibility 5.8 miles    
Events Rain    
T = Trace of Precipitation, MM = Missing Value Source: Averaged Metar Reports

Daily Weather History Graph

Daily Weather History Graph

Search for Another Location

Airport or City:

Trip Planner

Search our weather history database for the weather conditions in past years. The results will help you decide how hot, cold, wet, or windy it might be!

Date:

Astronomy

Sep. 02, 2012 Rise Set
Actual Time 5:53 AM +07 6:14 PM +07
Civil Twilight 5:31 AM +07 6:36 PM +07
Nautical Twilight 5:06 AM +07 7:01 PM +07
Astronomical Twilight 4:41 AM +07 7:26 PM +07
Moon 7:17 PM +07 (9/2) 7:02 AM +07 (9/2)
Length of Visible Light 13h 04m
Length of Day
12h 21m
Full, 97% of the Moon is Illuminated
Sep 2
Full
Sep 8
Last Quarter
Sep 16
New
Sep 23
First Quarter
Sep 30
Full

Hourly Weather History & Observations

Time (+07) Temp. Heat Index Dew Point Humidity Pressure Visibility Wind Dir Wind Speed Gust Speed Precip Events Conditions
7:00 AM 80.6 °F 87.1 °F 77.0 °F 89% 29.71 in 6.2 mi Calm Calm - N/A   Mostly Cloudy
7:30 AM 80.6 °F 86.2 °F 75.2 °F 84% 29.71 in 6.2 mi Calm Calm - N/A   Mostly Cloudy
8:00 AM 80.6 °F 86.2 °F 75.2 °F 84% 29.71 in 6.2 mi SW 4.6 mph - N/A   Mostly Cloudy
8:30 AM 80.6 °F 86.2 °F 75.2 °F 84% 29.71 in 6.2 mi SW 5.8 mph - N/A   Mostly Cloudy
9:00 AM 80.6 °F 86.2 °F 75.2 °F 84% 29.71 in 6.2 mi WSW 5.8 mph - N/A   Scattered Clouds
9:30 AM 82.4 °F 89.5 °F 75.2 °F 79% 29.71 in 6.2 mi WSW 4.6 mph - N/A   Scattered Clouds
10:00 AM 82.4 °F 89.5 °F 75.2 °F 79% 29.74 in 6.2 mi WSW 4.6 mph - N/A   Scattered Clouds
10:30 AM 84.2 °F 92.3 °F 75.2 °F 74% 29.74 in 6.2 mi Variable 2.3 mph - N/A   Scattered Clouds
11:00 AM 84.2 °F 92.3 °F 75.2 °F 74% 29.74 in 6.2 mi WSW 4.6 mph - N/A   Scattered Clouds
11:30 AM 86.0 °F 95.1 °F 75.2 °F 70% 29.74 in 6.2 mi West 4.6 mph - N/A   Scattered Clouds
12:00 PM 86.0 °F 93.4 °F 73.4 °F 66% 29.71 in 6.2 mi WSW 9.2 mph - N/A   Scattered Clouds
12:30 PM 86.0 °F 93.4 °F 73.4 °F 66% 29.71 in 5.6 mi WSW 8.1 mph - N/A Rain Light Rain
1:00 PM 86.0 °F 91.8 °F 71.6 °F 62% 29.68 in 5.6 mi West 10.4 mph - N/A   Mostly Cloudy
1:30 PM 86.0 °F 93.4 °F 73.4 °F 66% 29.68 in 6.2 mi West 9.2 mph - N/A   Mostly Cloudy
2:00 PM 86.0 °F 93.4 °F 73.4 °F 66% 29.65 in 6.2 mi WSW 8.1 mph - N/A   Mostly Cloudy
2:30 PM 80.6 °F 85.4 °F 73.4 °F 79% 29.65 in 5.0 mi NW 4.6 mph - N/A Rain Light Rain
3:00 PM 77.0 °F - 73.4 °F 89% 29.65 in 5.0 mi North 8.1 mph - N/A Rain Light Rain
3:30 PM 78.8 °F - 75.2 °F 89% 29.62 in 5.0 mi Calm Calm - N/A Rain Light Rain
4:00 PM 80.6 °F 86.2 °F 75.2 °F 84% 29.62 in 5.6 mi Calm Calm - N/A   Mostly Cloudy
4:30 PM 80.6 °F 86.2 °F 75.2 °F 84% 29.62 in 5.6 mi Variable 3.5 mph - N/A   Mostly Cloudy
5:00 PM 82.4 °F 89.5 °F 75.2 °F 79% 29.62 in 5.6 mi SSW 10.4 mph - N/A   Mostly Cloudy
5:30 PM 80.6 °F 86.2 °F 75.2 °F 84% 29.62 in 5.6 mi SW 8.1 mph - N/A   Mostly Cloudy
6:00 PM 80.6 °F 86.2 °F 75.2 °F 84% 29.62 in 5.6 mi SW 9.2 mph - N/A   Mostly Cloudy
6:30 PM 80.6 °F 86.2 °F 75.2 °F 84% 29.65 in 5.6 mi SW 6.9 mph - N/A   Mostly Cloudy
7:00 PM 80.6 °F 86.2 °F 75.2 °F 84% 29.65 in 5.6 mi WSW 8.1 mph - N/A   Mostly Cloudy
7:30 PM 80.6 °F 85.4 °F 73.4 °F 79% 29.65 in 5.6 mi WSW 6.9 mph - N/A   Mostly Cloudy
8:00 PM 80.6 °F 85.4 °F 73.4 °F 79% 29.68 in 5.6 mi WSW 4.6 mph - N/A   Mostly Cloudy
8:30 PM 80.6 °F 86.2 °F 75.2 °F 84% 29.71 in 5.6 mi Variable 3.5 mph - N/A   Mostly Cloudy
9:00 PM 80.6 °F 86.2 °F 75.2 °F 84% 29.71 in 5.6 mi WNW 4.6 mph - N/A Rain Light Rain
9:30 PM 78.8 °F - 75.2 °F 89% 29.71 in 5.6 mi Variable 2.3 mph - N/A Rain Light Rain
10:00 PM 78.8 °F - 75.2 °F 89% 29.71 in 5.6 mi Calm Calm - N/A Rain Light Rain
10:30 PM 78.8 °F - 75.2 °F 89% 29.71 in 5.6 mi Calm Calm - N/A Rain Light Rain